Regional Weather Roundup
Issued by NWS

Home | Current Version | Previous Version | Text Only | Print | Product List | Glossary On
Versions: 1 2 3 4 5 6 7 8 9 10 11 12 13 14 15 16 17 18 19 20 21 22 23 24 25 26 27 28 29 30 31 32 33 34 35 36 37 38 39 40 41 42 43 44 45 46 47 48 49 50
437
ASUS42 KFFC 050810
RWRGA
WEATHER ROUNDUP FOR GEORGIA
NATIONAL WEATHER SERVICE PEACHTREE CITY GA
300 AM EST MON DEC 05 2016

NOTE: "FAIR" INDICATES FEW OR NO CLOUDS BELOW 12,000 FEET WITH NO
SIGNIFICANT WEATHER AND/OR OBSTRUCTIONS TO VISIBILITY.

* = USE WITH CAUTION. THE STATIONS MARKED WITH AN ASTERISK MAY NOT
REPORT WEATHER SUCH AS PRECIPITATION, FOG, OR THUNDER AND ARE NOT
QUALITY CONTROLLED BY NWS.

THE REMARK "TC" DENOTES TEMPERATURE READING IN DEGREES CELSIUS.

GAZ001>058-050900-
NORTH GEORGIA

CITY           SKY/WX    TMP DP  RH WIND       PRES   REMARKS
ATLANTA        FOG       44  44 100 NE7       30.01R VSB 1
ATHENS         LGT RAIN  43  42  97 NW8       30.03R
CHAMBLEE       CLOUDY    43  41  93 N9        30.02R
PEACHTREE CITY CLOUDY    45  44  97 CALM      30.02R
ROME           CLOUDY    45  44  97 N5        30.03F FOG
WEST ATLANTA   CLOUDY    44  41  89 N9        30.03S
GAINESVILLE    CLOUDY    42  42 100 CALM      30.03R
CARTERSVILLE   CLOUDY    44  43  96 CALM      30.04R


CITY           SKY/WX    TMP DP  RH WIND       PRES   REMARKS
DALTON*        CLOUDY    45  45 100 CALM      30.03S FOG
MARIETTA       CLOUDY    43  42  94 CALM      30.01R
CANTON*        CLOUDY    43  41  93 CALM      30.03S FOG
$$

GAZ059>098-102>109-050900-
CENTRAL GEORGIA

CITY           SKY/WX    TMP DP  RH WIND       PRES   REMARKS
AUGUSTA-BUSH   CLOUDY    48  45  89 N5        30.01F
AUGUSTA-DANIEL LGT RAIN  46  43  89 N5        30.00F
COLUMBUS       CLOUDY    49  47  93 NE5       29.99R
MACON          CLOUDY    47  45  93 E6        29.97F
ROBINS AFB     CLOUDY    47  46  95 CALM      29.97F


CITY           SKY/WX    TMP DP  RH WIND       PRES   REMARKS
LAGRANGE*      CLOUDY    48  48 100 CALM      30.00S
SYLVANIA*      CLOUDY   N/A N/A N/A N5        30.00S FOG
MILLEDGEVILLE* LGT RAIN  46  46 100 CALM      29.99F
$$

GAZ099>101-110>166-050900-
SOUTH GEORGIA

CITY           SKY/WX    TMP DP  RH WIND       PRES   REMARKS
SAVANNAH       CLOUDY    68  63  84 S7        29.97F
VALDOSTA       CLOUDY    68  67  96 S7        29.96F
ALMA           MOCLDY    64  64 100 CALM      29.97S
ST SIMONS      MOCLDY    69  63  81 S7        29.99F
FT STEWART     DRIZZLE   68  63  83 CALM      29.95F
ALBANY         CLOUDY    54  53  97 E6        29.98F
HUNTER AFB     CLOUDY    70  67  92 S7        29.95S
MOODY AFB      CLOUDY    69  66  89 S10       29.93F
BRUNSWICK      MOCLDY    70  66  88 S12G18    29.99F


CITY           SKY/WX    TMP DP  RH WIND       PRES   REMARKS
BAINBRIDGE*    LGT RAIN  64  63  94 N5        29.96S
MOULTRIE*      RAIN      68  66  94 CALM      29.96F
VIDALIA*       LGT RAIN  54  54 100 N6        29.99S
WAYCROSS*      MOCLDY    68  67  98 S3        29.98S
DOUGLAS*       LGT RAIN  64  63  94 CALM      29.98S
$$




USA.gov is the U.S. government's official web portal to all federal, state and local government web resources and services.